Location: Albany
(35.0170°S, 117.8920°E)
Time: 17:24:56
(UTC+08:00)

Explorer 11/Cluster Stage 4 - Pass Details

Date: 23 January 2021
Orbit: 467 x 1257 km, 28.8° (Epoch: 02 March)

Event Time Altitude Azimuth Distance (km) Brightness Sun altitude
Rises 08:55:28 0° 307° (NW) 3,443 9.5 42.5°
Reaches altitude 10° 08:58:40 10° 319° (NW) 2,351 8.9 43.1°
Maximum altitude 09:03:05 25° 13° (NNE) 1,379 8.3 44.0°
Drops below altitude 10° 09:06:50 10° 68° (ENE) 1,964 9.6 44.8°
Sets 09:09:15 0° 82° (E) 2,762 10.2 45.3°
